This is the latest recevied weather packets stored in our database for station/object AD4CG. If no packets are shown the sender has not sent any weather packets the latest 10 day(s).
| Time | Temp. | Humidity | Pressure | Rain* | Wind** | Luminosity | Snow |
|---|---|---|---|---|---|---|---|
| 1777110147 | 14.44° C | 100% | 1009.8 hPa | 0 mm | - | - | - |
| 1777109207 | 14.44° C | 100% | 1010.2 hPa | 0 mm | - | - | - |
| 1777107957 | 14.44° C | 100% | 1009.8 hPa | 0 mm | - | - | - |
| 1777107644 | 15° C | 100% | 1009.8 hPa | 0 mm | - | - | - |
| 1777103841 | 15.56° C | 100% | 1009.5 hPa | 0 mm | - | - | - |
| 1777102585 | 16.11° C | 100% | 1009.1 hPa | 0 mm | - | - | - |
| 1777101645 | 16.11° C | 100% | 1009.1 hPa | 0 mm | - | - | - |
| 1777100707 | 16.67° C | 100% | 1009.1 hPa | 0 mm | - | - | - |
| 1777099766 | 17.22° C | 100% | 1009.1 hPa | 0 mm | - | - | - |
| 1777097854 | 17.22° C | 100% | 1009.1 hPa | 0 mm | - | - | - |
| 1777095974 | 17.78° C | 100% | 1009.8 hPa | 0 mm | - | - | - |
| 1777093158 | 18.33° C | 90% | 1010.5 hPa | 0 mm | - | - | - |
| 1777091908 | 19.44° C | 84% | 1010.2 hPa | 0 mm | - | - | - |
| 1777090346 | 20.56° C | 77% | 1010.2 hPa | 0 mm | - | - | - |
| 1777089096 | 21.67° C | 73% | 1010.2 hPa | 0 mm | - | - | - |
| 1777088473 | 21.67° C | 71% | 1010.2 hPa | 0 mm | - | - | - |
| 1777087214 | 21.67° C | 65% | 1010.2 hPa | 0 mm | - | - | - |
| 1777086901 | 21.67° C | 63% | 1010.2 hPa | 0 mm | - | - | - |
| 1777084390 | 23.33° C | 56% | 1010.5 hPa | 0 mm | - | - | - |
| 1777083446 | 22.78° C | 50% | 1010.2 hPa | 0 mm | - | - | - |
| 1777080932 | 21.67° C | 59% | 1009.8 hPa | 0 mm | - | - | - |
| 1777079675 | 22.22° C | 49% | 1009.1 hPa | 0 mm | - | - | - |
| 1777078119 | 23.33° C | 50% | 1009.1 hPa | 0 mm | - | - | - |
| 1777076538 | 23.89° C | 45% | 1008.8 hPa | 0 mm | - | - | - |
| 1777075284 | 24.44° C | 49% | 1008.8 hPa | 0 mm | - | - | - |
* Rain latest hour (hover to see other rain measurements)
** Current wind speed in m/s (hover to see current wind gust speed)